Radiation Dose at Monitoring Post of Fukushima Daini Nuclear Power Station
Date,Time,MP-1(microSv/h),MP-2(microSv/h),MP-3(microSv/h),MP-4(microSv/h),MP-5(microSv/h),MP-6(microSv/h),MP-7(microSv/h),Wind Direction,Wind Velocity(m/s),Rain
2018/05/20,00:00,0.308,0.192,0.315,0.299,0.298,0.157,0.096,north-northeast,12.9,Yes
2018/05/20,00:10,0.308,0.193,0.314,0.300,0.298,0.155,0.095,northeast,13.3,Yes
2018/05/20,00:20,0.309,0.193,0.315,0.300,0.297,0.156,0.095,north-northeast,12.9,Yes
2018/05/20,00:30,0.309,0.194,0.314,0.299,0.297,0.157,0.095,north-northeast,14.4,Yes
2018/05/20,00:40,0.308,0.193,0.314,0.301,0.297,0.157,0.095,north-northeast,13.7,Yes
2018/05/20,00:50,0.308,0.193,0.314,0.301,0.296,0.157,0.095,north-northeast,13.3,Yes
2018/05/20,01:00,0.310,0.194,0.316,0.299,0.298,0.157,0.095,north,11.4,Yes
2018/05/20,01:10,0.309,0.194,0.315,0.300,0.297,0.156,0.095,north-northeast,10.7,Yes
2018/05/20,01:20,0.308,0.193,0.314,0.299,0.296,0.157,0.094,north,9.8,Yes
2018/05/20,01:30,0.309,0.195,0.314,0.298,0.297,0.157,0.096,north,10.9,Yes
2018/05/20,01:40,0.310,0.194,0.315,0.300,0.298,0.159,0.097,north,11.5,Yes
2018/05/20,01:50,0.309,0.193,0.314,0.300,0.296,0.157,0.097,north,11.4,Yes
2018/05/20,02:00,0.308,0.194,0.313,0.299,0.295,0.156,0.097,north,12.0,Yes
2018/05/20,02:10,0.311,0.194,0.314,0.299,0.297,0.158,0.097,north-northwest,11.7,Yes
2018/05/20,02:20,0.309,0.194,0.315,0.299,0.297,0.158,0.097,north-northwest,12.0,Yes
2018/05/20,02:30,0.309,0.194,0.313,0.299,0.295,0.157,0.096,north,11.2,Yes
2018/05/20,02:40,0.310,0.193,0.313,0.299,0.297,0.156,0.096,north,11.4,No
2018/05/20,02:50,0.307,0.194,0.314,0.299,0.296,0.156,0.096,north,10.6,Yes
2018/05/20,03:00,0.308,0.192,0.314,0.300,0.295,0.156,0.096,north,9.0,No
2018/05/20,03:10,0.308,0.192,0.314,0.297,0.295,0.157,0.095,north-northwest,9.6,No
2018/05/20,03:20,0.308,0.193,0.314,0.299,0.297,0.155,0.095,north-northwest,9.5,No
2018/05/20,03:30,0.308,0.192,0.313,0.298,0.296,0.155,0.095,north-northwest,9.8,No
2018/05/20,03:40,0.309,0.192,0.313,0.298,0.295,0.155,0.094,north,10.0,No
2018/05/20,03:50,0.308,0.193,0.311,0.298,0.295,0.156,0.095,north-northwest,10.3,No
2018/05/20,04:00,0.309,0.192,0.313,0.297,0.297,0.156,0.095,north,10.3,No
2018/05/20,04:10,0.308,0.192,0.313,0.298,0.295,0.156,0.095,north,8.8,Yes
2018/05/20,04:20,0.309,0.192,0.311,0.299,0.294,0.155,0.094,north,11.1,Yes
2018/05/20,04:30,0.307,0.192,0.312,0.298,0.296,0.155,0.094,north,10.9,No
2018/05/20,04:40,0.308,0.192,0.313,0.298,0.296,0.155,0.094,north-northwest,9.5,No
2018/05/20,04:50,0.308,0.193,0.313,0.298,0.296,0.156,0.095,north-northwest,9.5,No
2018/05/20,05:00,0.308,0.192,0.313,0.298,0.296,0.155,0.094,north,10.7,No
2018/05/20,05:10,0.308,0.192,0.313,0.297,0.296,0.155,0.094,north-northwest,10.1,No
2018/05/20,05:20,0.308,0.191,0.313,0.298,0.296,0.156,0.095,north,10.3,No
2018/05/20,05:30,0.309,0.192,0.313,0.298,0.295,0.156,0.094,north,10.6,No
2018/05/20,05:40,0.308,0.192,0.313,0.299,0.296,0.155,0.095,north-northwest,10.3,No
2018/05/20,05:50,0.309,0.192,0.313,0.298,0.295,0.155,0.093,north,10.0,No
2018/05/20,06:00,0.308,0.192,0.312,0.298,0.296,0.155,0.095,north-northwest,10.1,No
2018/05/20,06:10,0.308,0.191,0.314,0.299,0.295,0.155,0.094,north,10.0,No
2018/05/20,06:20,0.307,0.191,0.314,0.298,0.295,0.155,0.095,north,9.2,No
2018/05/20,06:30,0.308,0.192,0.313,0.298,0.296,0.156,0.094,north,10.3,No
2018/05/20,06:40,0.307,0.191,0.314,0.299,0.297,0.155,0.094,north,11.7,No
2018/05/20,06:50,0.309,0.191,0.313,0.297,0.295,0.155,0.094,north,9.2,No
2018/05/20,07:00,0.308,0.191,0.312,0.297,0.296,0.156,0.094,north,9.3,No
2018/05/20,07:10,0.308,0.192,0.314,0.297,0.295,0.155,0.094,north,8.6,No
2018/05/20,07:20,0.308,0.192,0.311,0.297,0.295,0.156,0.093,north,7.5,No
2018/05/20,07:30,0.309,0.192,0.312,0.298,0.297,0.154,0.094,north,8.1,No
2018/05/20,07:40,0.309,0.192,0.310,0.297,0.294,0.155,0.095,north,10.0,No
2018/05/20,07:50,0.307,0.191,0.313,0.298,0.295,0.155,0.094,north,9.8,No
2018/05/20,08:00,0.309,0.192,0.311,0.297,0.295,0.155,0.095,north,9.8,No
2018/05/20,08:10,0.307,0.190,0.312,0.295,0.295,0.155,0.094,north,7.0,No
2018/05/20,08:20,0.309,0.193,0.313,0.298,0.296,0.155,0.094,north,8.4,No
2018/05/20,08:30,0.308,0.192,0.315,0.296,0.295,0.154,0.094,north,8.1,No
2018/05/20,08:40,0.309,0.193,0.313,0.296,0.295,0.156,0.095,north,6.3,No
2018/05/20,08:50,0.307,0.192,0.315,0.297,0.295,0.155,0.093,north-northeast,6.6,No
2018/05/20,09:00,0.308,0.192,0.313,0.296,0.294,0.155,0.094,north-northeast,6.6,No
2018/05/20,09:10,0.306,0.191,0.313,0.295,0.295,0.155,0.095,north-northeast,6.5,No
2018/05/20,09:20,0.309,0.192,0.316,0.300,0.293,0.154,0.094,north,5.3,No
2018/05/20,09:30,0.306,0.192,0.313,0.297,0.297,0.156,0.095,north,5.4,No
2018/05/20,09:40,0.309,0.192,0.316,0.295,0.294,0.156,0.094,north,4.9,No
2018/05/20,09:50,0.308,0.192,0.313,0.295,0.297,0.155,0.094,north-northeast,5.5,No
2018/05/20,10:00,0.308,0.191,0.315,0.299,0.296,0.156,0.095,north-northeast,4.9,No
2018/05/20,10:10,0.309,0.192,0.312,0.299,0.293,0.156,0.094,north-northeast,5.4,No
2018/05/20,10:20,0.306,0.192,0.315,0.297,0.297,0.154,0.094,north-northeast,7.5,No
2018/05/20,10:30,0.311,0.192,0.313,0.297,0.297,0.155,0.095,north-northeast,6.9,No
2018/05/20,10:40,0.308,0.193,0.311,0.296,0.294,0.156,0.094,north-northeast,6.8,No
2018/05/20,10:50,0.308,0.192,0.313,0.299,0.297,0.155,0.095,north-northeast,6.8,No
2018/05/20,11:00,0.310,0.194,0.312,0.299,0.295,0.155,0.094,north-northeast,5.3,No
2018/05/20,11:10,0.307,0.192,0.310,0.298,0.296,0.156,0.094,north-northeast,5.1,No
2018/05/20,11:20,0.310,0.194,0.311,0.297,0.297,0.155,0.094,northeast,4.9,No
2018/05/20,11:30,0.309,0.192,0.315,0.300,0.294,0.156,0.095,northeast,5.2,No
2018/05/20,11:40,0.307,0.192,0.314,0.300,0.295,0.155,0.093,northeast,6.7,No
2018/05/20,11:50,0.310,0.194,0.312,0.299,0.299,0.156,0.095,northeast,6.7,No
2018/05/20,12:00,0.308,0.192,0.312,0.295,0.295,0.155,0.095,northeast,5.4,No
2018/05/20,12:10,0.306,0.194,0.315,0.298,0.295,0.156,0.095,northeast,5.8,No
2018/05/20,12:20,0.312,0.192,0.313,0.301,0.298,0.156,0.095,northeast,5.8,No
2018/05/20,12:30,0.308,0.193,0.311,0.300,0.295,0.155,0.095,northeast,5.7,No
2018/05/20,12:40,0.312,0.193,0.311,0.299,0.293,0.156,0.095,northeast,6.0,No
2018/05/20,12:50,0.311,0.193,0.315,0.297,0.298,0.156,0.096,northeast,5.3,No
2018/05/20,13:00,0.309,0.192,0.317,0.301,0.298,0.156,0.095,northeast,4.0,No
2018/05/20,13:10,0.311,0.194,0.314,0.302,0.295,0.157,0.095,northeast,4.5,No
2018/05/20,13:20,0.309,0.193,0.313,0.300,0.300,0.157,0.095,northeast,4.5,No
2018/05/20,13:30,0.310,0.194,0.311,0.299,0.297,0.157,0.095,northeast,4.1,No
2018/05/20,13:40,0.311,0.194,0.312,0.297,0.293,0.155,0.095,east-northeast,3.9,No
2018/05/20,13:50,0.308,0.193,0.317,0.300,0.297,0.155,0.096,northeast,4.3,No
2018/05/20,14:00,0.311,0.193,0.316,0.303,0.298,0.157,0.095,east-northeast,3.5,No
2018/05/20,14:10,0.311,0.194,0.315,0.301,0.295,0.157,0.095,east-northeast,2.7,No
2018/05/20,14:20,0.308,0.193,0.313,0.300,0.294,0.156,0.095,east-northeast,2.8,No
2018/05/20,14:30,0.306,0.194,0.312,0.298,0.299,0.156,0.095,northeast,2.5,No
2018/05/20,14:40,0.311,0.194,0.311,0.298,0.298,0.157,0.096,east,1.7,No
2018/05/20,14:50,0.309,0.193,0.316,0.303,0.294,0.156,0.096,east,1.1,No
2018/05/20,15:00,0.307,0.194,0.317,0.302,0.293,0.156,0.095,east-southeast,1.1,No
2018/05/20,15:10,0.310,0.194,0.316,0.303,0.296,0.157,0.094,southeast,1.4,No
2018/05/20,15:20,0.312,0.193,0.314,0.303,0.299,0.157,0.095,southeast,0.8,No
2018/05/20,15:30,0.308,0.194,0.313,0.301,0.297,0.156,0.095,southeast,1.4,No
2018/05/20,15:40,0.307,0.194,0.316,0.303,0.296,0.156,0.094,-,CALM,No
2018/05/20,15:50,0.311,0.194,0.318,0.302,0.294,0.158,0.096,south-southwest,1.8,No
2018/05/20,16:00,0.312,0.195,0.315,0.305,0.296,0.157,0.095,south,3.1,No
2018/05/20,16:10,0.309,0.194,0.319,0.302,0.299,0.156,0.096,south,3.5,No
2018/05/20,16:20,0.307,0.195,0.316,0.304,0.296,0.157,0.095,south,4.7,No
2018/05/20,16:30,0.312,0.194,0.318,0.301,0.296,0.157,0.095,south,4.7,No
2018/05/20,16:40,0.312,0.195,0.318,0.304,0.297,0.157,0.096,south,5.4,No
2018/05/20,16:50,0.309,0.194,0.319,0.302,0.298,0.158,0.096,south,5.3,No
2018/05/20,17:00,0.312,0.195,0.317,0.304,0.297,0.157,0.095,south,5.0,No
2018/05/20,17:10,0.312,0.194,0.317,0.302,0.298,0.157,0.095,south,4.4,No
2018/05/20,17:20,0.308,0.193,0.316,0.303,0.300,0.158,0.096,south,4.9,No
2018/05/20,17:30,0.311,0.195,0.318,0.303,0.297,0.158,0.096,south,5.5,No
2018/05/20,17:40,0.312,0.194,0.316,0.304,0.298,0.156,0.096,south,4.6,No
2018/05/20,17:50,0.308,0.195,0.319,0.302,0.300,0.158,0.096,south,4.5,No
2018/05/20,18:00,0.313,0.194,0.317,0.303,0.299,0.157,0.096,south,5.5,No
2018/05/20,18:10,0.309,0.195,0.318,0.302,0.300,0.157,0.095,south,6.2,No
2018/05/20,18:20,0.312,0.194,0.317,0.303,0.298,0.156,0.096,south,6.4,No
2018/05/20,18:30,0.310,0.195,0.316,0.304,0.300,0.158,0.096,south,6.3,No
2018/05/20,18:40,0.312,0.194,0.317,0.303,0.299,0.157,0.096,south-southwest,5.8,No
2018/05/20,18:50,0.311,0.195,0.316,0.304,0.299,0.158,0.095,south-southwest,4.9,No
2018/05/20,19:00,0.315,0.197,0.317,0.301,0.301,0.157,0.095,south-southwest,4.0,No
2018/05/20,19:10,0.312,0.194,0.317,0.305,0.297,0.157,0.096,south-southwest,5.2,No
2018/05/20,19:20,0.313,0.195,0.318,0.301,0.301,0.157,0.095,south-southwest,5.0,No
2018/05/20,19:30,0.311,0.196,0.318,0.304,0.299,0.156,0.096,southwest,3.4,No
2018/05/20,19:40,0.313,0.195,0.317,0.304,0.300,0.158,0.095,west-southwest,1.8,No
2018/05/20,19:50,0.312,0.196,0.318,0.303,0.297,0.157,0.096,west-southwest,2.0,No
2018/05/20,20:00,0.311,0.194,0.317,0.304,0.299,0.158,0.096,west,1.5,No
2018/05/20,20:10,0.313,0.195,0.318,0.302,0.300,0.158,0.096,west-northwest,2.1,No
2018/05/20,20:20,0.313,0.196,0.317,0.303,0.300,0.157,0.096,northwest,2.0,No
2018/05/20,20:30,0.313,0.195,0.318,0.303,0.299,0.157,0.096,north-northwest,2.2,No
2018/05/20,20:40,0.313,0.194,0.320,0.302,0.299,0.158,0.096,north-northwest,2.8,No
2018/05/20,20:50,0.313,0.195,0.319,0.305,0.300,0.159,0.096,north,2.8,No
2018/05/20,21:00,0.312,0.195,0.318,0.304,0.299,0.158,0.096,north,3.8,No
2018/05/20,21:10,0.311,0.196,0.318,0.303,0.299,0.158,0.096,north,3.9,No
2018/05/20,21:20,0.312,0.195,0.317,0.305,0.299,0.158,0.096,north,2.8,No
2018/05/20,21:30,0.313,0.195,0.319,0.302,0.298,0.158,0.096,north,3.4,No
2018/05/20,21:40,0.312,0.195,0.319,0.304,0.301,0.158,0.097,north,2.4,No
2018/05/20,21:50,0.314,0.196,0.318,0.306,0.298,0.157,0.097,north,1.9,No
2018/05/20,22:00,0.312,0.195,0.319,0.303,0.299,0.158,0.096,north,3.2,No
2018/05/20,22:10,0.312,0.195,0.317,0.305,0.299,0.158,0.096,north,2.3,No
2018/05/20,22:20,0.315,0.197,0.318,0.304,0.298,0.158,0.097,north,3.1,No
2018/05/20,22:30,0.312,0.195,0.317,0.303,0.300,0.159,0.096,north,3.7,No
2018/05/20,22:40,0.312,0.195,0.318,0.304,0.296,0.159,0.097,north-northeast,3.6,No
2018/05/20,22:50,0.312,0.196,0.320,0.303,0.301,0.158,0.095,north-northeast,2.7,No
2018/05/20,23:00,0.312,0.194,0.317,0.303,0.298,0.158,0.096,north,3.5,No
2018/05/20,23:10,0.313,0.195,0.318,0.304,0.296,0.158,0.097,north,3.5,No
2018/05/20,23:20,0.313,0.195,0.319,0.304,0.299,0.158,0.096,north-northeast,2.3,No
2018/05/20,23:30,0.311,0.195,0.318,0.305,0.297,0.158,0.096,north,2.5,No
2018/05/20,23:40,0.314,0.195,0.319,0.304,0.300,0.158,0.096,north-northeast,1.3,No
2018/05/20,23:50,0.311,0.195,0.317,0.303,0.299,0.158,0.096,north-northeast,0.9,No
